Location: Biharia
(46.4333°N, 22.8000°E)
Time: 18:05:17
(UTC+00:00)

CSL-04 Rocket - Pass Details

Date: 31 May 2022
Orbit: 807 x 859 km, 98.9° (Epoch: 27 June)

Event Time Altitude Azimuth Distance (km) Brightness Sun altitude
Rises 18:43:46 0° 186° (S) 3,325 6.5 -5.1°
Reaches altitude 10° 18:46:14 10° 194° (SSW) 2,404 5.8 -5.4°
Maximum altitude 18:51:12 39° 262° (W) 1,218 5.0 -6.1°
Drops below altitude 10° 18:56:16 10° 331° (NNW) 2,451 7.5 -6.7°
Sets 18:58:48 0° 339° (NNW) 3,399 8.1 -7.0°
